AirNav   Pilot Hours Calculator
 
 1112 users online  

05IL Classic Landings Airport
Bonfield, Illinois, USA

GOING TO BONFIELD?


FAA INFORMATION EFFECTIVE 22 APRIL 2021

Location

FAA Identifier: 05IL
Lat/Long: 41-09-36.0000N 088-01-00.0000W
41-09.600000N 088-01.000000W
41.1600000,-88.0166667
(estimated)
Elevation: 635 ft. / 194 m (estimated)
Variation: 01W (1990)
From city: 2 miles NE of BONFIELD, IL
Time zone: UTC -5 (UTC -6 during Standard Time)
Zip code: 60913

Airport Operations

Airport use: Private use. Permission required prior to landing
Activation date: 03/1993
Control tower: no
ARTCC: CHICAGO CENTER
FSS: KANKAKEE FLIGHT SERVICE STATION
Attendance: UNATNDD
Wind indicator: yes
Segmented circle: no

Airport Communications

WX AWOS-3 at IKK (9 nm SE): 128.475 (815-939-4044)

Nearby radio navigation aids

VOR radial/distance  VOR name  Freq  Var
EONr235/12.1PEOTONE VORTAC113.2002E
JOTr148/26.9JOLIET VOR/DME112.3002E
CGTr222/29.0CHICAGO HEIGHTS VORTAC114.2002E
RBSr009/35.3ROBERTS VOR/DME116.8002E
PNTr055/38.3PONTIAC VOR/DME109.6003E

 
NDB name  Hdg/Dist  Freq  Var  ID
LUKOW329/9.927200EIK .. -.-

Airport Services

Runway Information

Runway 10/28

Dimensions: 3200 x 70 ft. / 975 x 21 m
Surface: turf
RUNWAY 10  RUNWAY 28
Traffic pattern: leftleft
Displaced threshold: 700 ft.675 ft.
Obstructions: none50 ft. trees, 75 ft. from runway

Airport Ownership and Management from official FAA records

Ownership: Privately-owned
Owner: CLASSIC LANDINGS COMM ASSOC
7300 LANDING LANE
BONFIELD, IL 60913
Phone 815-939-3399
Manager: J. D. SLACK
7300 LANDING LANE
BONFIELD, IL 60913
Phone 815-939-3399

Additional Remarks

FOR CD CTC CHICAGO ARTCC AT 630-906-8921.

Instrument Procedures

There are no published instrument procedures at 05IL.

Some nearby airports with instrument procedures:

KIKK - Greater Kankakee Airport (9 nm SE)
C56 - Bult Field Airport (20 nm NE)
C09 - Morris Municipal Airport-James R. Washburn Field (24 nm NW)
KLOT - Lewis University Airport (27 nm N)
KPNT - Pontiac Municipal Airport (31 nm SW)
 
Loc | Ops | Rwys | IFR | FBO | Links
Com | Nav | Svcs | Stats | Notes
Area around 05IL (Classic Landings Airport)
 
Road maps at: MapQuest Bing Google
 
Aerial photo
No photo
 
Sectional chart

 
Airport distance calculator
Flying to Classic Landings Airport? Find the distance to fly.

From to 05IL

Sunrise and sunset
Times for 05-May-2021
 Local
(UTC-5)
 Zulu
(UTC)
Morning civil twilight05:1510:15
Sunrise05:4610:46
Sunset19:5200:52
Evening civil twilight20:2201:22

Current date and time
Zulu (UTC)  05-May-2021 23:23:51
Local (UTC-5)  05-May-2021 18:23:51
 
METAR
KIKK 
9nm SE 
052255Z AUTO 08011KT 10SM CLR 16/04 A3013 RMK AO2 T01600041
TAF
KGYY 
38nm NE 
052100Z 0521/0618 05010KT P6SM SCT150 FM060100 10005KT P6SM BKN150 FM060900 17007KT P6SM SCT070 OVC150 FM061200 17004KT P6SM -SHRA BKN070 FM061500 11006KT 6SM -SHRA SCT010 OVC015
KMDW 
39nm N 
052100Z 0521/0624 08011KT P6SM FEW050 SCT150 FM060200 15005KT P6SM BKN150 FM060900 17007KT P6SM SCT070 OVC150 FM061100 14005KT P6SM -SHRA SCT025 OVC035 FM061400 08006KT 6SM -SHRA BR SCT010 OVC015 FM061700 01011KT P6SM BKN025
KDPA 
47nm N 
052100Z 0521/0618 31011G17KT P6SM SCT060 FM052230 06011KT P6SM FEW060 SCT150 FM060200 14005KT P6SM BKN150 FM060900 17007KT P6SM SCT070 OVC150 FM061100 14005KT P6SM -SHRA SCT025 OVC035 FM061300 08006KT 6SM -SHRA BR SCT010 OVC015 FM061700 01011KT P6SM BKN020
NOTAMs
Click for the latest NOTAMs
NOTAMs are issued by the DoD/FAA and will open in a separate window not controlled by AirNav.

 

 
 

Would you like to see your business listed on this page?

 If your business provides an interesting product or service to pilots, flight crews, aircraft, or users of the Classic Landings Airport, you should consider listing it here.  To start the listing process, click on the button below
 
Add a business
 

Other Pages about Classic Landings Airport

Update a link
 
Copyright © AirNav, LLC. All rights reserved. Privacy Policy  Contact